Weather History for Russellville, AR

Change the Weather History Date:

Thursday, November 15, 2012

  Actual Average (KHOT) Record (KHOT)
Temperature  
Mean Temperature 42 °F -  
Max Temperature 57 °F 63 °F 84 °F (1958)
Min Temperature 28 °F 40 °F 24 °F (1986)
Degree Days  
Heating Degree Days 22    
Moisture  
Dew Point 31 °F    
Average Humidity 73    
Maximum Humidity 96    
Minimum Humidity 35    
Precipitation  
Precipitation 0.00 in - - ()
Sea Level Pressure  
Sea Level Pressure 30.34 in    
Wind  
Wind Speed 0 mph (SSW)    
Max Wind Speed 4 mph    
Max Gust Speed -    
Visibility 9 miles    
Events      
Averages and records for this station are not official NWS values.
T = Trace of Precipitation, MM = Missing Value Source: NWS Daily Summary

Daily Weather History Graph

Daily Weather History Graph

Search for Another Location

Airport:

Trip Planner

Search our weather history database for the weather conditions in past years. The results will help you decide how hot, cold, wet, or windy it might be!

Date:

Astronomy

Nov. 15, 2012 Rise Set
Actual Time 6:47 AM CST 5:05 PM CST
Civil Twilight 6:20 AM CST 5:32 PM CST
Nautical Twilight 5:50 AM CST 6:03 PM CST
Astronomical Twilight 5:19 AM CST 6:33 PM CST
Moon 8:41 AM CST (11/15) 7:00 PM CST (11/15)
Length of Visible Light 11h 12m
Length of Day
10h 18m
Waxing Crescent, 5% of the Moon is Illuminated
Nov 15
Waxing Crescent
Nov 20
First Quarter
Nov 28
Full
Dec 6
Last Quarter
Dec 13
New

Hourly Weather History & Observations

Time (CST) Temp. Dew Point Humidity Pressure Visibility Wind Dir Wind Speed Gust Speed Precip Events Conditions
12:53 AM 30.9 °F 28.9 °F 92% 30.33 in 9.0 mi Calm Calm - N/A   Clear
1:53 AM 30.9 °F 28.9 °F 92% 30.33 in 8.0 mi Calm Calm - N/A   Clear
2:53 AM 30.0 °F 28.0 °F 92% 30.33 in 7.0 mi Calm Calm - N/A   Clear
3:53 AM 30.0 °F 28.0 °F 92% 30.33 in 7.0 mi Calm Calm - N/A   Clear
4:53 AM 30.0 °F 28.0 °F 92% 30.34 in 7.0 mi Calm Calm - N/A   Clear
5:53 AM 28.9 °F 27.0 °F 92% 30.34 in 6.0 mi Calm Calm - N/A   Clear
6:53 AM 28.9 °F 27.0 °F 92% 30.36 in 6.0 mi Calm Calm - N/A   Clear
7:53 AM 30.9 °F 30.0 °F 96% 30.38 in 8.0 mi Calm Calm - N/A   Clear
8:53 AM 39.0 °F 33.1 °F 79% 30.38 in 10.0 mi Calm Calm - N/A   Clear
9:53 AM 46.9 °F 33.1 °F 59% 30.39 in 10.0 mi Calm Calm - N/A   Clear
10:53 AM 51.1 °F 28.9 °F 43% 30.38 in 10.0 mi Calm Calm - N/A   Clear
11:53 AM 54.0 °F 30.9 °F 41% 30.35 in 10.0 mi Variable 3.5 mph - N/A   Clear
12:53 PM 57.0 °F 32.0 °F 39% 30.32 in 10.0 mi Calm Calm - N/A   Clear
1:53 PM 57.9 °F 30.9 °F 36% 30.30 in 10.0 mi Variable 3.5 mph - N/A   Clear
2:53 PM 57.9 °F 30.0 °F 35% 30.29 in 10.0 mi SSW 3.5 mph - N/A   Clear
3:53 PM 57.9 °F 32.0 °F 37% 30.29 in 10.0 mi Calm Calm - N/A   Clear
4:53 PM 51.1 °F 34.0 °F 52% 30.30 in 10.0 mi Calm Calm - N/A   Clear
5:53 PM 44.1 °F 36.0 °F 73% 30.31 in 10.0 mi Calm Calm - N/A   Clear
6:53 PM 41.0 °F 35.1 °F 79% 30.32 in 10.0 mi Calm Calm - N/A   Clear
7:53 PM 39.0 °F 34.0 °F 82% 30.33 in 10.0 mi Calm Calm - N/A   Clear
8:53 PM 39.0 °F 34.0 °F 82% 30.35 in 10.0 mi Calm Calm - N/A   Clear
9:53 PM 37.9 °F 34.0 °F 86% 30.36 in 10.0 mi Calm Calm - N/A   Clear
10:53 PM 35.1 °F 32.0 °F 89% 30.36 in 9.0 mi Calm Calm - N/A   Clear
11:53 PM 34.0 °F 30.9 °F 89% 30.37 in 8.0 mi Calm Calm - N/A   Clear